Location: Knowlton
(51.2333°N, 1.2667°E)
Time: 09:44:40
(UTC+00:00)

Cosmos 1766 Rocket - Pass Details

Date: 18 April 2021
Orbit: 604 x 634 km, 82.5° (Epoch: 05 May)

Event Time Altitude Azimuth Distance (km) Brightness Sun altitude
Rises 20:55:45 0° 353° (N) 2,874 7.8 -16.7°
Reaches altitude 10° 20:58:04 10° 0° (N) 1,965 6.8 -16.9°
Maximum altitude 21:02:14 46° 74° (ENE) 826 4.0 -17.4°
Enters shadow 21:03:30 35° 119° (ESE) 983 4.1 -17.5°
